Address 0xe1d8db6e4ce7c61787c21d2f98498e818c24354f 6

 

Overview

Balance:
0.014697108078727275 ETH

ETH Value:
$23.34 (@ $1,588.07/ETH)
Txn Hash Method
Block
From
To
Value [Txn Fee]
0x839dfa022a5f9a6f06100f2f7f8d8f95115fc717ac167630c3b49ba94b3073b0Bond With Hint190694722022-07-31 21:55:38179 days 17 hrs ago0xe1d8db6e4ce7c61787c21d2f98498e818c24354fOUT Livepeer: Proxy Bonding Manager0 ETH0.000111324185 ETH
0x4f69b302c92fd900d6d2866eb5af93d48cf2dc312482bafa83c9dd225a8cf617Approve190694442022-07-31 21:54:10179 days 17 hrs ago0xe1d8db6e4ce7c61787c21d2f98498e818c24354fOUT Livepeer: LPT Token0 ETH0.000062919929 ETH
0xa9f81e3acbeaec3a94942a4189dd202e9119a07990d7550b85f421c96b3817baBeef In ETH185502342022-07-25 18:21:07185 days 20 hrs ago0xe1d8db6e4ce7c61787c21d2f98498e818c24354fOUT 0x6d973e33af0801af13b7939956745c72bb17aa1e0.17 ETH0.000121523773 ETH
0x0bea779678fec37d94749364ea33080c0ff7d11937fc26bad0b969f41f22e6f2Deposit All185501452022-07-25 18:19:57185 days 20 hrs ago0xe1d8db6e4ce7c61787c21d2f98498e818c24354fOUT 0x0b7ea1b9fbc9860f4a508e9d0dde04f2552d2ade0 ETH0.000129551576 ETH
0x0a201cad7018ea021f9c3b69848797d49793bac2e99b93e61576013ce7bc8493Approve185501132022-07-25 18:19:07185 days 20 hrs ago0xe1d8db6e4ce7c61787c21d2f98498e818c24354fOUT 0xb54b196e9feccf364c2281da1e11bc498cb5c1c10 ETH0.000092654766 ETH
0x6cb732038dc435e824b375d22bd282379816faf42ffcc1cd26994fbf6e0ed30cSwap Exact Token...185499122022-07-25 18:15:06185 days 20 hrs ago0xe1d8db6e4ce7c61787c21d2f98498e818c24354fOUT SushiSwap: Router0 ETH0.000122622925 ETH
0x7e8693b0419247135fbc5252afcaab3066aa520418c61cf70368453ddfcd731cWithdraw185495122022-07-25 18:05:15185 days 21 hrs ago0xe1d8db6e4ce7c61787c21d2f98498e818c24354fOUT 0x4d1d896fd501788d8605f672ad72fc05fe5ab3110 ETH0.000079358572 ETH
0x55d5e24cdab2976c7dc4c893e52b1fe9a56c573798ba6d57935fc1629643352fDeposit184056922022-07-24 2:14:20187 days 12 hrs ago0xe1d8db6e4ce7c61787c21d2f98498e818c24354fOUT 0x4d1d896fd501788d8605f672ad72fc05fe5ab3110 ETH0.000073642732 ETH
0x6edc8929f387e95de4dfc405bd4640e1358b5523c0ff474ccfbf3ee846fd6dae0x35e8b7d5184056352022-07-24 2:11:59187 days 13 hrs ago0xe1d8db6e4ce7c61787c21d2f98498e818c24354fOUT0xfecc2b55f0879f2ec0d15c3ca864cd1d8586873c0.12 ETH0.000091495756 ETH
0x5d15713172f15c0a80e48c842aae584cbf40c617747ffab8a58a3f951670242cSwap Exact Token...184055532022-07-24 2:11:05187 days 13 hrs ago0xe1d8db6e4ce7c61787c21d2f98498e818c24354fOUT SushiSwap: Router0 ETH0.000102584723 ETH
0x07ab76c363a2f91044d0869d576d3bf50dd98808db3f7f25cc8505d093c28e43Withdraw184054292022-07-24 2:07:42187 days 13 hrs ago0xe1d8db6e4ce7c61787c21d2f98498e818c24354fOUT 0x4d1d896fd501788d8605f672ad72fc05fe5ab3110 ETH0.000065219557 ETH
0xeced90060e46215cbacbafb44089b0067a3d1a8424be1d06ef4192590bd5e68dDeposit183277642022-07-22 23:04:16188 days 16 hrs ago0xe1d8db6e4ce7c61787c21d2f98498e818c24354fOUT 0x4d1d896fd501788d8605f672ad72fc05fe5ab3110 ETH0.000073200945 ETH
0xc0a757fc622a8936abe857ecee37fe03b294020f896d1abc7a7855e1249b60e60x35e8b7d5183276942022-07-22 23:03:23188 days 16 hrs ago0xe1d8db6e4ce7c61787c21d2f98498e818c24354fOUT0xfecc2b55f0879f2ec0d15c3ca864cd1d8586873c0.08 ETH0.000100178307 ETH
0xe9bf7bf3e020a3ff96d6e4c8c72b42c660e5de4f9efc46fb25dad8f884344f6aSwap Exact Token...183276712022-07-22 23:03:23188 days 16 hrs ago0xe1d8db6e4ce7c61787c21d2f98498e818c24354fOUT SushiSwap: Router0 ETH0.000112809533 ETH
0x87feec3b639a569dbd53f48130e2b0895cc0629a04905d69bc97aed4757d9743Withdraw183276172022-07-22 23:00:53188 days 16 hrs ago0xe1d8db6e4ce7c61787c21d2f98498e818c24354fOUT 0x4d1d896fd501788d8605f672ad72fc05fe5ab3110 ETH0.00007185951 ETH
0x6b633dcb678ab2a6371cd26e36c074e2205118b7518717fe9a64c8b3d8709b260x35e8b7d5182473852022-07-22 0:31:50189 days 14 hrs ago0xe1d8db6e4ce7c61787c21d2f98498e818c24354fOUT0xfecc2b55f0879f2ec0d15c3ca864cd1d8586873c0.065 ETH0.000149838258 ETH
0xcece1cd4e1a669112a4b298c75158b9f2c7b1338023f5b816a0ed7a3a3163cd5Swap Exact Token...182473112022-07-22 0:31:21189 days 14 hrs ago0xe1d8db6e4ce7c61787c21d2f98498e818c24354fOUT SushiSwap: Router0 ETH0.000167353619 ETH
0x8611326768cafd1dc1829f815db60ddd09c75ec9cfc100994b2372c222ed3194Approve182472932022-07-22 0:30:20189 days 14 hrs ago0xe1d8db6e4ce7c61787c21d2f98498e818c24354fOUT 0x83ea9d8748a7ad9f2f12b2a2f7a45ce47a862ac90 ETH0.000134773378 ETH
0xdefdcc556401ab66483619c9ca9896b82d32e776763ff6e41616a285cb80674fWithdraw182471572022-07-22 0:26:42189 days 14 hrs ago0xe1d8db6e4ce7c61787c21d2f98498e818c24354fOUT 0x4d1d896fd501788d8605f672ad72fc05fe5ab3110 ETH0.00011861143 ETH
0x654ed778dc0e83156103017d1fe4e59c6e9ad4ce7dd1c4d297b492a75cdaad06Deposit182119852022-07-21 14:24:04190 days 48 mins ago0xe1d8db6e4ce7c61787c21d2f98498e818c24354fOUT 0x4d1d896fd501788d8605f672ad72fc05fe5ab3110 ETH0.000111016751 ETH
0x5059c66820e47ca3265954a6afb03ce618e9e23cc80630402fd536704468f1a30x35e8b7d5182119202022-07-21 14:22:48190 days 49 mins ago0xe1d8db6e4ce7c61787c21d2f98498e818c24354fOUT0xfecc2b55f0879f2ec0d15c3ca864cd1d8586873c1.3 ETH0.000145201314 ETH
0xa1f19d255de032de652cea96c38dd8351b90c28c4a61c5b1226a6a89447a2e90Approve182104602022-07-21 14:03:45190 days 1 hr ago0xe1d8db6e4ce7c61787c21d2f98498e818c24354fOUT 0xb54b196e9feccf364c2281da1e11bc498cb5c1c10 ETH0.000112551657 ETH
0x197cea61780ca78e61e0084cd4269fce0a59d2fc5040584cb3666099a4096538Transfer182102652022-07-21 14:01:51190 days 1 hr ago0xf93dc62e4f17f15a9a1aa374fa2f816a006f3989 IN 0xe1d8db6e4ce7c61787c21d2f98498e818c24354f1.317664285498808 ETH0.000084581137 ETH
[ Download CSV Export 
Latest 8 internal transactions
Parent Txn Hash Block From To Value
0xa9f81e3acbeaec3a94942a4189dd202e9119a07990d7550b85f421c96b3817ba185502342022-07-25 18:21:07185 days 20 hrs ago 0x6d973e33af0801af13b7939956745c72bb17aa1e0xe1d8db6e4ce7c61787c21d2f98498e818c24354f0.000000063213323889 ETH
0x6cb732038dc435e824b375d22bd282379816faf42ffcc1cd26994fbf6e0ed30c185499122022-07-25 18:15:06185 days 20 hrs ago SushiSwap: Router0xe1d8db6e4ce7c61787c21d2f98498e818c24354f0.173846601565863384 ETH
0x6edc8929f387e95de4dfc405bd4640e1358b5523c0ff474ccfbf3ee846fd6dae184056352022-07-24 2:11:59187 days 13 hrs ago 0xfecc2b55f0879f2ec0d15c3ca864cd1d8586873c0xe1d8db6e4ce7c61787c21d2f98498e818c24354f0.000000079800880779 ETH
0x5d15713172f15c0a80e48c842aae584cbf40c617747ffab8a58a3f951670242c184055532022-07-24 2:11:05187 days 13 hrs ago SushiSwap: Router0xe1d8db6e4ce7c61787c21d2f98498e818c24354f0.119648067634683784 ETH
0xc0a757fc622a8936abe857ecee37fe03b294020f896d1abc7a7855e1249b60e6183276942022-07-22 23:03:23188 days 16 hrs ago 0xfecc2b55f0879f2ec0d15c3ca864cd1d8586873c0xe1d8db6e4ce7c61787c21d2f98498e818c24354f0.000000069439637066 ETH
0xe9bf7bf3e020a3ff96d6e4c8c72b42c660e5de4f9efc46fb25dad8f884344f6a183276712022-07-22 23:03:23188 days 16 hrs ago SushiSwap: Router0xe1d8db6e4ce7c61787c21d2f98498e818c24354f0.083991939348938931 ETH
0x6b633dcb678ab2a6371cd26e36c074e2205118b7518717fe9a64c8b3d8709b26182473852022-07-22 0:31:50189 days 14 hrs ago 0xfecc2b55f0879f2ec0d15c3ca864cd1d8586873c0xe1d8db6e4ce7c61787c21d2f98498e818c24354f0.000000059620114126 ETH
0xcece1cd4e1a669112a4b298c75158b9f2c7b1338023f5b816a0ed7a3a3163cd5182473112022-07-22 0:31:21189 days 14 hrs ago SushiSwap: Router0xe1d8db6e4ce7c61787c21d2f98498e818c24354f0.056886281932017287 ETH
[ Download CSV Export 
Latest 1 Deposit
[ Download CSV Export 
Loading

Contract Name:
0 ETH

Compiler Version
0

Optimization Enabled:
0 ETH

Other Settings:
-NA-
Block Transaction Gas Used Reward
Age Block Fee Address BC Fee Address Voting Power Jailed Incoming
Block Uncle Number Difficulty Gas Used Reward
Loading
Make sure to use the "Vote Down" button for any spammy posts, and the "Vote Up" for interesting conversations.